Amado Nervo National Airport
MMEP : now visible

Airfield :











YOU CAN JOIN US ON...

 
LOGIN :

Register | Disclaimer

   EN    FR    IT 

 









Legend :    VFR   Marginal VFR   IFR   Intensive IFR   Very Intensive IFR
Visi :
Ceiling :
>= 8 km
>= 3000ft
5 to 8 km
1000 to 3000 ft
1500m to 5 km
500 to 1000 ft
800 to 1500m
200 to 500 ft
< 800m
< 200 ft
Symbols :   Thunderstorms  Fog  Heavy snow  Heavy precipitations  Wind > 20 kt






- Airport Elevation : 3020 ft
- IATA code : TPQ


MMEP - Amado Nervo National

CURRENT METAR :
  • 172249Z 09007KT 3SM -RA OVC040 27/23 A2984 RMK 60405 8/3//

EXPIRED METARs :
  • 172147Z 20015KT 12SM SCT060TCU 31/22 A2982 RMK 8/200
  • 172049Z 30010KT 12SM FEW060TCU 34/18 A2986 RMK SLP067 57025 971 8/200

TAF TAF MMEP
Valid from the 17 at 18:00 until the 18 at 18:00 UTC


171653Z 1718/1818 28008KT P6SM SCT120
BECMG 1802/1803 05005KT SKC
FM181000 02005KT 6SM HZ SCT012
TEMPO 1811/1814 3SM BR HZ BKN010
FM181700 30006KT P6SM SCT015
MMFR FIR / North America



MET'MAP, your aeronautical weather chart ! - Copyright ORBIFLY December 2007 - Disclaimer

ORBIFLY MET'MAP TEAM :

Programming & Development : Alexandra Zaïnal
Concept & original design : Baudouin d'Aumeries
Assistance for programming : Marc-Olivier Méhu
Technical & hardware support : Manuel Goepfert

Contact : metmap@orbifly.com




SOURCES & CREDITS :

   NOAA       Earth
Advisory